Year,Month,Day,Hour,Minute,Value (Times are PST for windgust in km/hr)
2011,06,24,00,00,27.40
2011,06,24,00,01,30.60
2011,06,24,00,02,29.00
2011,06,24,00,03,30.60
2011,06,24,00,04,22.50
2011,06,24,00,05,22.50
2011,06,24,00,06,19.30
2011,06,24,00,07,29.00
2011,06,24,00,08,24.20
2011,06,24,00,09,24.20
2011,06,24,00,10,32.20
2011,06,24,00,11,30.60
2011,06,24,00,12,30.60
2011,06,24,00,13,24.20
2011,06,24,00,14,24.20
2011,06,24,00,15,22.50
2011,06,24,00,16,27.40
2011,06,24,00,17,25.70
2011,06,24,00,18,20.90
2011,06,24,00,19,32.20
2011,06,24,00,20,20.90
2011,06,24,00,21,17.70
2011,06,24,00,22,20.90
2011,06,24,00,23,32.20
2011,06,24,00,24,29.00
2011,06,24,00,25,27.40
2011,06,24,00,26,27.40
2011,06,24,00,27,25.70
2011,06,24,00,28,20.90
2011,06,24,00,29,35.40
2011,06,24,00,30,20.90
2011,06,24,00,31,29.00
2011,06,24,00,32,27.40
2011,06,24,00,33,27.40
2011,06,24,00,34,24.20
2011,06,24,00,35,20.90
2011,06,24,00,36,24.20
2011,06,24,00,37,20.90
2011,06,24,00,38,25.70
2011,06,24,00,39,25.70
2011,06,24,00,40,27.40
2011,06,24,00,41,27.40
2011,06,24,00,42,29.00
2011,06,24,00,43,32.20
2011,06,24,00,44,22.50
2011,06,24,00,45,19.30
2011,06,24,00,46,22.50
2011,06,24,00,47,25.70
2011,06,24,00,48,25.70
2011,06,24,00,49,25.70
2011,06,24,00,50,17.70
2011,06,24,00,51,20.90
2011,06,24,00,52,22.50
2011,06,24,00,53,25.70
2011,06,24,00,54,24.20
2011,06,24,00,55,22.50
2011,06,24,00,56,25.70
2011,06,24,00,57,25.70
2011,06,24,00,58,16.10
2011,06,24,00,59,25.70
2011,06,24,01,00,20.90
2011,06,24,01,01,20.90
2011,06,24,01,02,29.00
2011,06,24,01,03,25.70
2011,06,24,01,04,27.40
2011,06,24,01,05,20.90
2011,06,24,01,06,24.20
2011,06,24,01,07,24.20
2011,06,24,01,08,17.70
2011,06,24,01,09,20.90
2011,06,24,01,10,25.70
2011,06,24,01,11,32.20
2011,06,24,01,12,27.40
2011,06,24,01,13,16.10
2011,06,24,01,14,16.10
2011,06,24,01,15,24.20
2011,06,24,01,16,25.70
2011,06,24,01,17,29.00
2011,06,24,01,18,27.40
2011,06,24,01,19,24.20
2011,06,24,01,20,25.70
2011,06,24,01,21,22.50
2011,06,24,01,22,19.30
2011,06,24,01,23,22.50
2011,06,24,01,24,20.90
2011,06,24,01,25,16.10
2011,06,24,01,26,17.70
2011,06,24,01,27,19.30
2011,06,24,01,28,29.00
2011,06,24,01,29,24.20
2011,06,24,01,30,22.50
2011,06,24,01,31,17.70
2011,06,24,01,32,22.50
2011,06,24,01,33,20.90
2011,06,24,01,34,14.50
2011,06,24,01,35,11.30
2011,06,24,01,36,14.50
2011,06,24,01,37,17.70
2011,06,24,01,38,16.10
2011,06,24,01,39,11.30
2011,06,24,01,40,14.50
2011,06,24,01,41,16.10
2011,06,24,01,42,16.10
2011,06,24,01,43,6.40
2011,06,24,01,44,4.80
2011,06,24,01,45,4.80
2011,06,24,01,46,1.60
2011,06,24,01,47,1.60
2011,06,24,01,48,3.20
2011,06,24,01,49,3.20
2011,06,24,01,50,1.60
2011,06,24,01,51,4.80
2011,06,24,01,52,1.60
2011,06,24,01,53,8.10
2011,06,24,01,54,9.60
2011,06,24,01,55,6.40
2011,06,24,01,56,1.60
2011,06,24,01,57,3.20
2011,06,24,01,58,3.20
2011,06,24,01,59,3.20
2011,06,24,02,00,3.20
2011,06,24,02,01,3.20
2011,06,24,02,02,3.20
2011,06,24,02,03,1.60
2011,06,24,02,04,6.40
2011,06,24,02,05,6.40
2011,06,24,02,07,11.30
2011,06,24,02,08,6.40
2011,06,24,02,09,17.70
2011,06,24,02,10,11.30
2011,06,24,02,11,20.90
2011,06,24,02,12,16.10
2011,06,24,02,13,17.70
2011,06,24,02,14,9.60
2011,06,24,02,15,24.20
2011,06,24,02,16,19.30
2011,06,24,02,17,14.50
2011,06,24,02,18,9.60
2011,06,24,02,19,8.10
2011,06,24,02,20,17.70
2011,06,24,02,21,17.70
2011,06,24,02,22,20.90
2011,06,24,02,23,16.10
2011,06,24,02,24,20.90
2011,06,24,02,25,16.10
2011,06,24,02,26,12.90
2011,06,24,02,27,16.10
2011,06,24,02,28,8.10
2011,06,24,02,29,19.30
2011,06,24,02,30,9.60
2011,06,24,02,31,8.10
2011,06,24,02,32,14.50
2011,06,24,02,33,19.30
2011,06,24,02,34,16.10
2011,06,24,02,35,14.50
2011,06,24,02,36,16.10
2011,06,24,02,37,25.70
2011,06,24,02,38,17.70
2011,06,24,02,39,14.50
2011,06,24,02,40,9.60
2011,06,24,02,41,19.30
2011,06,24,02,42,6.40
2011,06,24,02,43,6.40
2011,06,24,02,44,6.40
2011,06,24,02,45,9.60
2011,06,24,02,46,8.10
2011,06,24,02,47,17.70
2011,06,24,02,48,16.10
2011,06,24,02,49,11.30
2011,06,24,02,50,3.20
2011,06,24,02,51,6.40
2011,06,24,02,52,9.60
2011,06,24,02,53,8.10
2011,06,24,02,54,6.40
2011,06,24,02,55,3.20
2011,06,24,02,56,3.20
2011,06,24,02,57,1.60
2011,06,24,02,58,1.60
2011,06,24,02,59,4.80
2011,06,24,03,00,8.10
2011,06,24,03,01,4.80
2011,06,24,03,02,4.80
2011,06,24,03,03,1.60
2011,06,24,03,04,3.20
2011,06,24,03,05,4.80
2011,06,24,03,06,1.60
2011,06,24,03,07,3.20
2011,06,24,03,08,1.60
2011,06,24,03,09,4.80
2011,06,24,03,10,3.20
2011,06,24,03,11,3.20
2011,06,24,03,12,6.40
2011,06,24,03,13,4.80
2011,06,24,03,14,4.80
2011,06,24,03,15,6.40
2011,06,24,03,16,8.10
2011,06,24,03,17,6.40
2011,06,24,03,18,9.60
2011,06,24,03,19,9.60
2011,06,24,03,20,8.10
2011,06,24,03,21,9.60
2011,06,24,03,22,9.60
2011,06,24,03,23,14.50
2011,06,24,03,24,14.50
2011,06,24,03,25,14.50
2011,06,24,03,26,14.50
2011,06,24,03,27,11.30
2011,06,24,03,28,9.60
2011,06,24,03,29,6.40
2011,06,24,03,30,6.40
2011,06,24,03,31,4.80
2011,06,24,03,32,6.40
2011,06,24,03,33,4.80
2011,06,24,03,34,6.40
2011,06,24,03,35,6.40
2011,06,24,03,36,4.80
2011,06,24,03,37,6.40
2011,06,24,03,38,3.20
2011,06,24,03,39,4.80
2011,06,24,03,40,4.80
2011,06,24,03,41,6.40
2011,06,24,03,42,4.80
2011,06,24,03,43,3.20
2011,06,24,03,44,3.20
2011,06,24,03,45,1.60
2011,06,24,03,46,1.60
2011,06,24,03,48,1.60
2011,06,24,03,49,3.20
2011,06,24,03,50,4.80
2011,06,24,03,53,1.60
2011,06,24,03,54,1.60
2011,06,24,03,55,1.60
2011,06,24,03,57,1.60
2011,06,24,04,04,1.60
2011,06,24,04,18,4.80
2011,06,24,04,21,1.60
2011,06,24,04,22,1.60
2011,06,24,04,24,1.60
2011,06,24,04,30,1.60
2011,06,24,04,31,3.20
2011,06,24,04,32,3.20
2011,06,24,04,33,4.80
2011,06,24,04,34,1.60
2011,06,24,04,35,1.60
2011,06,24,04,36,3.20
2011,06,24,04,38,1.60
2011,06,24,04,39,3.20
2011,06,24,04,40,6.40
2011,06,24,04,41,6.40
2011,06,24,04,42,4.80
2011,06,24,04,43,4.80
2011,06,24,04,44,3.20
2011,06,24,04,45,4.80
2011,06,24,04,46,8.10
2011,06,24,04,47,12.90
2011,06,24,04,48,9.60
2011,06,24,04,49,9.60
2011,06,24,04,50,12.90
2011,06,24,04,51,11.30
2011,06,24,04,52,6.40
2011,06,24,04,53,4.80
2011,06,24,04,54,11.30
2011,06,24,04,55,12.90
2011,06,24,04,56,19.30
2011,06,24,04,57,14.50
2011,06,24,04,58,14.50
2011,06,24,04,59,9.60
2011,06,24,05,00,9.60
2011,06,24,05,01,11.30
2011,06,24,05,02,9.60
2011,06,24,05,03,8.10
2011,06,24,05,04,9.60
2011,06,24,05,05,8.10
2011,06,24,05,06,9.60
2011,06,24,05,07,9.60
2011,06,24,05,08,14.50
2011,06,24,05,09,11.30
2011,06,24,05,10,8.10
2011,06,24,05,11,16.10
2011,06,24,05,12,9.60
2011,06,24,05,13,9.60
2011,06,24,05,14,9.60
2011,06,24,05,15,6.40
2011,06,24,05,16,11.30
2011,06,24,05,17,17.70
2011,06,24,05,18,14.50
2011,06,24,05,19,11.30
2011,06,24,05,20,14.50
2011,06,24,05,21,11.30
2011,06,24,05,22,9.60
2011,06,24,05,23,17.70
2011,06,24,05,24,16.10
2011,06,24,05,25,17.70
2011,06,24,05,26,12.90
2011,06,24,05,27,14.50
2011,06,24,05,28,16.10
2011,06,24,05,29,9.60
2011,06,24,05,30,8.10
2011,06,24,05,31,11.30
2011,06,24,05,32,12.90
2011,06,24,05,33,9.60
2011,06,24,05,34,12.90
2011,06,24,05,35,9.60
2011,06,24,05,36,8.10
2011,06,24,05,37,19.30
2011,06,24,05,38,17.70
2011,06,24,05,39,8.10
2011,06,24,05,40,8.10
2011,06,24,05,41,14.50
2011,06,24,05,42,9.60
2011,06,24,05,43,16.10
2011,06,24,05,44,16.10
2011,06,24,05,45,9.60
2011,06,24,05,46,9.60
2011,06,24,05,47,20.90
2011,06,24,05,48,12.90
2011,06,24,05,49,6.40
2011,06,24,05,50,9.60
2011,06,24,05,51,9.60
2011,06,24,05,52,8.10
2011,06,24,05,53,9.60
2011,06,24,05,54,9.60
2011,06,24,05,55,11.30
2011,06,24,05,56,4.80
2011,06,24,05,57,3.20
2011,06,24,05,58,1.60
2011,06,24,05,59,6.40
2011,06,24,06,00,4.80
2011,06,24,06,01,3.20
2011,06,24,06,02,3.20
2011,06,24,06,03,1.60
2011,06,24,06,05,3.20
2011,06,24,06,06,4.80
2011,06,24,06,07,4.80
2011,06,24,06,08,6.40
2011,06,24,06,09,3.20
2011,06,24,06,10,1.60
2011,06,24,06,11,1.60
2011,06,24,06,12,4.80
2011,06,24,06,13,4.80
2011,06,24,06,14,6.40
2011,06,24,06,15,4.80
2011,06,24,06,16,4.80
2011,06,24,06,17,3.20
2011,06,24,06,18,1.60
2011,06,24,06,19,3.20
2011,06,24,06,21,6.40
2011,06,24,06,22,8.10
2011,06,24,06,23,8.10
2011,06,24,06,24,11.30
2011,06,24,06,25,8.10
2011,06,24,06,26,8.10
2011,06,24,06,27,6.40
2011,06,24,06,28,6.40
2011,06,24,06,29,3.20
2011,06,24,06,30,6.40
2011,06,24,06,31,8.10
2011,06,24,06,32,8.10
2011,06,24,06,33,8.10
2011,06,24,06,34,4.80
2011,06,24,06,35,3.20
2011,06,24,06,36,1.60
2011,06,24,06,37,4.80
2011,06,24,06,38,3.20
2011,06,24,06,39,1.60
2011,06,24,06,40,4.80
2011,06,24,06,41,3.20
2011,06,24,06,42,1.60
2011,06,24,06,43,6.40
2011,06,24,06,44,6.40
2011,06,24,06,45,8.10
2011,06,24,06,46,6.40
2011,06,24,06,47,4.80
2011,06,24,06,48,6.40
2011,06,24,06,49,4.80
2011,06,24,06,50,3.20
2011,06,24,06,51,1.60
2011,06,24,06,52,1.60
2011,06,24,06,53,1.60
2011,06,24,06,54,1.60
2011,06,24,06,55,3.20
2011,06,24,06,56,3.20
2011,06,24,06,57,3.20
2011,06,24,06,58,4.80
2011,06,24,06,59,3.20
2011,06,24,07,00,3.20
2011,06,24,07,01,3.20
2011,06,24,07,03,3.20
2011,06,24,07,04,6.40
2011,06,24,07,05,8.10
2011,06,24,07,06,11.30
2011,06,24,07,07,12.90
2011,06,24,07,08,8.10
2011,06,24,07,09,6.40
2011,06,24,07,10,12.90
2011,06,24,07,11,9.60
2011,06,24,07,12,11.30
2011,06,24,07,13,16.10
2011,06,24,07,14,6.40
2011,06,24,07,15,8.10
2011,06,24,07,16,4.80
2011,06,24,07,17,4.80
2011,06,24,07,21,3.20
2011,06,24,07,22,3.20
2011,06,24,07,23,3.20
2011,06,24,07,24,4.80
2011,06,24,07,25,6.40
2011,06,24,07,26,6.40
2011,06,24,07,27,9.60
2011,06,24,07,28,4.80
2011,06,24,07,29,8.10
2011,06,24,07,30,8.10
2011,06,24,07,31,4.80
2011,06,24,07,32,3.20
2011,06,24,07,33,3.20
2011,06,24,07,34,6.40
2011,06,24,07,35,4.80
2011,06,24,07,36,3.20
2011,06,24,07,37,4.80
2011,06,24,07,38,8.10
2011,06,24,07,39,4.80
2011,06,24,07,40,1.60
2011,06,24,07,41,1.60
2011,06,24,07,42,1.60
2011,06,24,07,47,3.20
2011,06,24,07,48,1.60
2011,06,24,07,49,3.20
2011,06,24,07,50,4.80
2011,06,24,07,51,1.60
2011,06,24,07,54,1.60
2011,06,24,07,55,1.60
2011,06,24,07,56,3.20
2011,06,24,07,57,4.80
2011,06,24,07,58,6.40
2011,06,24,07,59,4.80
2011,06,24,08,00,6.40
2011,06,24,08,01,3.20
2011,06,24,08,02,1.60
2011,06,24,08,03,3.20
2011,06,24,08,04,3.20
2011,06,24,08,05,1.60
2011,06,24,08,06,1.60
2011,06,24,08,07,4.80
2011,06,24,08,08,4.80
2011,06,24,08,09,3.20
2011,06,24,08,10,3.20
2011,06,24,08,11,1.60
2011,06,24,08,12,3.20
2011,06,24,08,13,6.40
2011,06,24,08,14,3.20
2011,06,24,08,15,3.20
2011,06,24,08,16,4.80
2011,06,24,08,17,6.40
2011,06,24,08,18,6.40
2011,06,24,08,19,8.10
2011,06,24,08,20,6.40
2011,06,24,08,21,6.40
2011,06,24,08,22,4.80
2011,06,24,08,23,4.80
2011,06,24,08,24,4.80
2011,06,24,08,25,4.80
2011,06,24,08,26,3.20
2011,06,24,08,28,4.80
2011,06,24,08,29,4.80
2011,06,24,08,30,3.20
2011,06,24,08,31,1.60
2011,06,24,08,33,3.20
2011,06,24,08,34,1.60
2011,06,24,08,35,1.60
2011,06,24,08,41,3.20
2011,06,24,08,42,3.20
2011,06,24,08,43,3.20
2011,06,24,08,44,1.60
2011,06,24,08,45,4.80
2011,06,24,08,46,6.40
2011,06,24,08,47,4.80
2011,06,24,08,48,4.80
2011,06,24,08,49,4.80
2011,06,24,08,50,3.20
2011,06,24,08,51,3.20
2011,06,24,08,52,3.20
2011,06,24,08,53,1.60
2011,06,24,08,54,3.20
2011,06,24,08,55,4.80
2011,06,24,08,56,4.80
2011,06,24,08,57,4.80
2011,06,24,08,58,4.80
2011,06,24,08,59,4.80
2011,06,24,09,00,4.80
2011,06,24,09,01,3.20
2011,06,24,09,02,4.80
2011,06,24,09,03,6.40
2011,06,24,09,04,8.10
2011,06,24,09,05,6.40
2011,06,24,09,06,6.40
2011,06,24,09,07,4.80
2011,06,24,09,08,4.80
2011,06,24,09,09,4.80
2011,06,24,09,10,4.80
2011,06,24,09,11,6.40
2011,06,24,09,12,6.40
2011,06,24,09,13,6.40
2011,06,24,09,14,4.80
2011,06,24,09,15,6.40
2011,06,24,09,16,4.80
2011,06,24,09,17,8.10
2011,06,24,09,18,6.40
2011,06,24,09,19,8.10
2011,06,24,09,20,6.40
2011,06,24,09,21,8.10
2011,06,24,09,22,8.10
2011,06,24,09,23,8.10
2011,06,24,09,24,9.60
2011,06,24,09,25,6.40
2011,06,24,09,26,8.10
2011,06,24,09,27,6.40
2011,06,24,09,28,8.10
2011,06,24,09,29,6.40
2011,06,24,09,30,8.10
2011,06,24,09,31,8.10
2011,06,24,09,32,6.40
2011,06,24,09,33,11.30
2011,06,24,09,34,9.60
2011,06,24,09,35,8.10
2011,06,24,09,36,9.60
2011,06,24,09,37,9.60
2011,06,24,09,38,4.80
2011,06,24,09,39,6.40
2011,06,24,09,40,8.10
2011,06,24,09,41,6.40
2011,06,24,09,42,8.10
2011,06,24,09,43,9.60
2011,06,24,09,44,11.30
2011,06,24,09,45,6.40
2011,06,24,09,46,8.10
2011,06,24,09,47,9.60
2011,06,24,09,48,9.60
2011,06,24,09,49,8.10
2011,06,24,09,50,8.10
2011,06,24,09,51,9.60
2011,06,24,09,52,8.10
2011,06,24,09,53,4.80
2011,06,24,09,54,9.60
2011,06,24,09,55,6.40
2011,06,24,09,56,4.80
2011,06,24,09,57,4.80
2011,06,24,09,58,6.40
2011,06,24,09,59,8.10
2011,06,24,10,00,8.10
2011,06,24,10,01,8.10
2011,06,24,10,02,8.10
2011,06,24,10,03,8.10
2011,06,24,10,04,8.10
2011,06,24,10,05,4.80
2011,06,24,10,06,4.80
2011,06,24,10,07,6.40
2011,06,24,10,08,4.80
2011,06,24,10,09,6.40
2011,06,24,10,10,9.60
2011,06,24,10,11,8.10
2011,06,24,10,12,9.60
2011,06,24,10,13,9.60
2011,06,24,10,14,9.60
2011,06,24,10,15,6.40
2011,06,24,10,16,4.80
2011,06,24,10,17,6.40
2011,06,24,10,18,8.10
2011,06,24,10,19,4.80
2011,06,24,10,20,4.80
2011,06,24,10,21,4.80
2011,06,24,10,22,6.40
2011,06,24,10,23,4.80
2011,06,24,10,24,4.80
2011,06,24,10,25,8.10
2011,06,24,10,26,8.10
2011,06,24,10,27,3.20
2011,06,24,10,28,8.10
2011,06,24,10,29,8.10
2011,06,24,10,30,6.40
2011,06,24,10,31,8.10
2011,06,24,10,32,6.40
2011,06,24,10,33,9.60
2011,06,24,10,34,6.40
2011,06,24,10,35,8.10
2011,06,24,10,36,8.10
2011,06,24,10,37,6.40
2011,06,24,10,38,4.80
2011,06,24,10,39,6.40
2011,06,24,10,40,8.10
2011,06,24,10,41,6.40
2011,06,24,10,42,8.10
2011,06,24,10,43,9.60
2011,06,24,10,44,8.10
2011,06,24,10,45,6.40
2011,06,24,10,46,6.40
2011,06,24,10,47,6.40
2011,06,24,10,48,6.40
2011,06,24,10,49,9.60
2011,06,24,10,50,8.10
2011,06,24,10,51,8.10
2011,06,24,10,52,4.80
2011,06,24,10,53,4.80
2011,06,24,10,54,3.20
2011,06,24,10,55,9.60
2011,06,24,10,56,9.60
2011,06,24,10,57,8.10
2011,06,24,10,58,4.80
2011,06,24,10,59,4.80
2011,06,24,11,00,9.60
2011,06,24,11,01,6.40
2011,06,24,11,02,8.10
2011,06,24,11,03,6.40
2011,06,24,11,04,8.10
2011,06,24,11,05,4.80
2011,06,24,11,06,4.80
2011,06,24,11,07,3.20
2011,06,24,11,08,4.80
2011,06,24,11,09,4.80
2011,06,24,11,10,4.80
2011,06,24,11,11,3.20
2011,06,24,11,12,4.80
2011,06,24,11,13,4.80
2011,06,24,11,14,4.80
2011,06,24,11,15,6.40
2011,06,24,11,16,4.80
2011,06,24,11,17,3.20
2011,06,24,11,18,4.80
2011,06,24,11,19,8.10
2011,06,24,11,20,6.40
2011,06,24,11,21,8.10
2011,06,24,11,22,8.10
2011,06,24,11,23,8.10
2011,06,24,11,24,3.20
2011,06,24,11,25,9.60
2011,06,24,11,26,9.60
2011,06,24,11,27,9.60
2011,06,24,11,28,9.60
2011,06,24,11,29,9.60
2011,06,24,11,30,6.40
2011,06,24,11,31,9.60
2011,06,24,11,32,8.10
2011,06,24,11,33,11.30
2011,06,24,11,34,11.30
2011,06,24,11,35,8.10
2011,06,24,11,36,9.60
2011,06,24,11,37,8.10
2011,06,24,11,38,8.10
2011,06,24,11,39,4.80
2011,06,24,11,40,6.40
2011,06,24,11,41,4.80
2011,06,24,11,42,3.20
2011,06,24,11,43,8.10
2011,06,24,11,44,9.60
2011,06,24,11,45,8.10
2011,06,24,11,46,8.10
2011,06,24,11,47,9.60
2011,06,24,11,48,6.40
2011,06,24,11,49,8.10
2011,06,24,11,50,6.40
2011,06,24,11,51,6.40
2011,06,24,11,52,6.40
2011,06,24,11,53,4.80
2011,06,24,11,54,6.40
2011,06,24,11,55,6.40
2011,06,24,11,56,3.20
2011,06,24,11,57,9.60
2011,06,24,11,58,8.10
2011,06,24,11,59,9.60
2011,06,24,12,00,8.10
2011,06,24,12,01,8.10
2011,06,24,12,02,16.10
2011,06,24,12,03,16.10
2011,06,24,12,04,11.30
2011,06,24,12,05,14.50
2011,06,24,12,06,11.30
2011,06,24,12,07,9.60
2011,06,24,12,08,9.60
2011,06,24,12,09,16.10
2011,06,24,12,10,11.30
2011,06,24,12,11,16.10
2011,06,24,12,12,17.70
2011,06,24,12,13,11.30
2011,06,24,12,14,16.10
2011,06,24,12,15,14.50
2011,06,24,12,16,16.10
2011,06,24,12,17,14.50
2011,06,24,12,18,4.80
2011,06,24,12,19,6.40
2011,06,24,12,20,8.10
2011,06,24,12,21,6.40
2011,06,24,12,22,6.40
2011,06,24,12,23,9.60
2011,06,24,12,24,6.40
2011,06,24,12,25,9.60
2011,06,24,12,26,16.10
2011,06,24,12,27,16.10
2011,06,24,12,28,14.50
2011,06,24,12,29,16.10
2011,06,24,12,30,17.70
2011,06,24,12,31,17.70
2011,06,24,12,32,16.10
2011,06,24,12,33,16.10
2011,06,24,12,34,12.90
2011,06,24,12,35,11.30
2011,06,24,12,36,8.10
2011,06,24,12,37,14.50
2011,06,24,12,38,8.10
2011,06,24,12,39,17.70
2011,06,24,12,40,16.10
2011,06,24,12,41,16.10
2011,06,24,12,42,19.30
2011,06,24,12,43,16.10
2011,06,24,12,44,16.10
2011,06,24,12,45,16.10
2011,06,24,12,46,14.50
2011,06,24,12,47,11.30
2011,06,24,12,48,11.30
2011,06,24,12,49,11.30
2011,06,24,12,50,8.10
2011,06,24,12,51,9.60
2011,06,24,12,52,11.30
2011,06,24,12,53,11.30
2011,06,24,12,54,11.30
2011,06,24,12,55,11.30
2011,06,24,12,56,9.60
2011,06,24,12,57,9.60
2011,06,24,12,58,11.30
2011,06,24,12,59,16.10
2011,06,24,13,00,11.30
2011,06,24,13,01,14.50
2011,06,24,13,02,14.50
2011,06,24,13,03,12.90
2011,06,24,13,04,9.60
2011,06,24,13,05,9.60
2011,06,24,13,06,14.50
2011,06,24,13,07,14.50
2011,06,24,13,08,14.50
2011,06,24,13,09,12.90
2011,06,24,13,10,9.60
2011,06,24,13,11,8.10
2011,06,24,13,12,9.60
2011,06,24,13,13,6.40
2011,06,24,13,14,9.60
2011,06,24,13,15,11.30
2011,06,24,13,16,11.30
2011,06,24,13,17,16.10
2011,06,24,13,18,9.60
2011,06,24,13,19,14.50
2011,06,24,13,20,16.10
2011,06,24,13,21,9.60
2011,06,24,13,22,8.10
2011,06,24,13,23,8.10
2011,06,24,13,24,12.90
2011,06,24,13,25,8.10
2011,06,24,13,26,9.60
2011,06,24,13,27,6.40
2011,06,24,13,28,8.10
2011,06,24,13,29,9.60
2011,06,24,13,30,8.10
2011,06,24,13,31,6.40
2011,06,24,13,32,6.40
2011,06,24,13,33,4.80
2011,06,24,13,34,9.60
2011,06,24,13,35,9.60
2011,06,24,13,36,9.60
2011,06,24,13,37,11.30
2011,06,24,13,38,8.10
2011,06,24,13,39,8.10
2011,06,24,13,40,3.20
2011,06,24,13,41,4.80
2011,06,24,13,42,4.80
2011,06,24,13,43,4.80
2011,06,24,13,44,3.20
2011,06,24,13,45,4.80
2011,06,24,13,46,3.20
2011,06,24,13,48,3.20
2011,06,24,13,49,3.20
2011,06,24,13,50,4.80
2011,06,24,13,51,4.80
2011,06,24,13,52,4.80
2011,06,24,13,53,4.80
2011,06,24,13,54,4.80
2011,06,24,13,55,3.20
2011,06,24,13,56,3.20
2011,06,24,13,57,3.20
2011,06,24,13,58,3.20
2011,06,24,13,59,1.60
2011,06,24,14,00,3.20
2011,06,24,14,01,1.60
2011,06,24,14,02,3.20
2011,06,24,14,03,4.80
2011,06,24,14,04,1.60
2011,06,24,14,05,1.60
2011,06,24,14,06,4.80
2011,06,24,14,07,3.20
2011,06,24,14,08,4.80
2011,06,24,14,09,4.80
2011,06,24,14,10,3.20
2011,06,24,14,11,3.20
2011,06,24,14,12,3.20
2011,06,24,14,13,3.20
2011,06,24,14,14,3.20
2011,06,24,14,15,4.80
2011,06,24,14,16,6.40
2011,06,24,14,17,3.20
2011,06,24,14,18,4.80
2011,06,24,14,19,6.40
2011,06,24,14,20,4.80
2011,06,24,14,21,4.80
2011,06,24,14,22,4.80
2011,06,24,14,23,1.60
2011,06,24,14,24,3.20
2011,06,24,14,25,3.20
2011,06,24,14,26,3.20
2011,06,24,14,27,4.80
2011,06,24,14,28,4.80
2011,06,24,14,29,6.40
2011,06,24,14,30,6.40
2011,06,24,14,31,3.20
2011,06,24,14,32,3.20
2011,06,24,14,33,3.20
2011,06,24,14,34,4.80
2011,06,24,14,35,4.80
2011,06,24,14,36,3.20
2011,06,24,14,37,6.40
2011,06,24,14,38,4.80
2011,06,24,14,39,3.20
2011,06,24,14,40,4.80
2011,06,24,14,41,4.80
2011,06,24,14,42,1.60
2011,06,24,14,43,1.60
2011,06,24,14,44,3.20
2011,06,24,14,45,1.60
2011,06,24,14,46,3.20
2011,06,24,14,47,3.20
2011,06,24,14,48,3.20
2011,06,24,14,49,3.20
2011,06,24,14,50,1.60
2011,06,24,14,51,1.60
2011,06,24,14,52,3.20
2011,06,24,14,53,6.40
2011,06,24,14,54,6.40
2011,06,24,14,55,6.40
2011,06,24,14,56,6.40
2011,06,24,14,57,8.10
2011,06,24,14,58,14.50
2011,06,24,14,59,22.50
2011,06,24,15,00,17.70
2011,06,24,15,01,11.30
2011,06,24,15,02,14.50
2011,06,24,15,03,9.60
2011,06,24,15,04,4.80
2011,06,24,15,05,4.80
2011,06,24,15,06,3.20
2011,06,24,15,07,3.20
2011,06,24,15,08,3.20
2011,06,24,15,11,1.60
2011,06,24,15,12,6.40
2011,06,24,15,13,9.60
2011,06,24,15,14,8.10
2011,06,24,15,15,6.40
2011,06,24,15,16,4.80
2011,06,24,15,17,8.10
2011,06,24,15,18,9.60
2011,06,24,15,19,9.60
2011,06,24,15,20,9.60
2011,06,24,15,21,8.10
2011,06,24,15,22,6.40
2011,06,24,15,23,8.10
2011,06,24,15,24,6.40
2011,06,24,15,25,4.80
2011,06,24,15,26,6.40
2011,06,24,15,27,8.10
2011,06,24,15,28,9.60
2011,06,24,15,29,8.10
2011,06,24,15,30,12.90
2011,06,24,15,31,11.30
2011,06,24,15,32,9.60
2011,06,24,15,33,6.40
2011,06,24,15,34,4.80
2011,06,24,15,35,3.20
2011,06,24,15,36,4.80
2011,06,24,15,37,4.80
2011,06,24,15,38,6.40
2011,06,24,15,39,6.40
2011,06,24,15,40,6.40
2011,06,24,15,41,4.80
2011,06,24,15,42,9.60
2011,06,24,15,43,9.60
2011,06,24,15,44,9.60
2011,06,24,15,45,9.60
2011,06,24,15,46,8.10
2011,06,24,15,47,6.40
2011,06,24,15,48,4.80
2011,06,24,15,49,4.80
2011,06,24,15,50,4.80
2011,06,24,15,51,3.20
2011,06,24,15,52,3.20
2011,06,24,15,53,3.20
2011,06,24,15,54,6.40
2011,06,24,15,55,8.10
2011,06,24,15,56,6.40
2011,06,24,15,57,6.40
2011,06,24,15,58,6.40
2011,06,24,15,59,3.20
2011,06,24,16,00,3.20
2011,06,24,16,01,1.60
2011,06,24,16,04,3.20
2011,06,24,16,06,1.60
2011,06,24,16,07,4.80
2011,06,24,16,08,1.60
2011,06,24,16,09,3.20
2011,06,24,16,10,1.60
2011,06,24,16,11,3.20
2011,06,24,16,12,3.20
2011,06,24,16,13,1.60
2011,06,24,16,15,3.20
2011,06,24,16,16,3.20
2011,06,24,16,17,3.20
2011,06,24,16,18,3.20
2011,06,24,16,19,6.40
2011,06,24,16,20,4.80
2011,06,24,16,21,6.40
2011,06,24,16,22,6.40
2011,06,24,16,23,4.80
2011,06,24,16,24,3.20
2011,06,24,16,25,4.80
2011,06,24,16,26,3.20
2011,06,24,16,27,3.20
2011,06,24,16,28,3.20
2011,06,24,16,29,4.80
2011,06,24,16,30,1.60
2011,06,24,16,31,3.20
2011,06,24,16,32,3.20
2011,06,24,16,33,4.80
2011,06,24,16,34,1.60
2011,06,24,16,35,3.20
2011,06,24,16,36,1.60
2011,06,24,16,38,3.20
2011,06,24,16,39,1.60
2011,06,24,16,40,1.60
2011,06,24,16,41,4.80
2011,06,24,16,42,4.80
2011,06,24,16,43,4.80
2011,06,24,16,44,3.20
2011,06,24,16,45,6.40
2011,06,24,16,46,6.40
2011,06,24,16,47,4.80
2011,06,24,16,48,8.10
2011,06,24,16,49,4.80
2011,06,24,16,50,6.40
2011,06,24,16,51,6.40
2011,06,24,16,52,3.20
2011,06,24,16,53,1.60
2011,06,24,16,54,1.60
2011,06,24,16,56,3.20
2011,06,24,16,57,3.20
2011,06,24,17,00,1.60
2011,06,24,17,03,1.60
2011,06,24,17,06,1.60
2011,06,24,17,07,3.20
2011,06,24,17,08,4.80
2011,06,24,17,09,3.20
2011,06,24,17,10,3.20
2011,06,24,17,11,1.60
2011,06,24,17,18,1.60
2011,06,24,17,20,3.20
2011,06,24,17,21,6.40
2011,06,24,17,22,8.10
2011,06,24,17,23,6.40
2011,06,24,17,24,4.80
2011,06,24,17,25,4.80
2011,06,24,17,26,4.80
2011,06,24,17,27,6.40
2011,06,24,17,28,6.40
2011,06,24,17,29,6.40
2011,06,24,17,30,6.40
2011,06,24,17,31,4.80
2011,06,24,17,32,6.40
2011,06,24,17,33,6.40
2011,06,24,17,34,6.40
2011,06,24,17,35,4.80
2011,06,24,17,36,6.40
2011,06,24,17,37,6.40
2011,06,24,17,38,8.10
2011,06,24,17,39,4.80
2011,06,24,17,40,4.80
2011,06,24,17,41,6.40
2011,06,24,17,42,4.80
2011,06,24,17,43,8.10
2011,06,24,17,44,6.40
2011,06,24,17,45,6.40
2011,06,24,17,46,4.80
2011,06,24,17,47,6.40
2011,06,24,17,48,8.10
2011,06,24,17,49,4.80
2011,06,24,17,50,3.20
2011,06,24,17,53,1.60
2011,06,24,17,54,3.20
2011,06,24,17,55,1.60
2011,06,24,17,56,3.20
2011,06,24,17,57,3.20
2011,06,24,17,58,1.60
2011,06,24,17,59,4.80
2011,06,24,18,00,4.80
2011,06,24,18,01,3.20
2011,06,24,18,02,4.80
2011,06,24,18,03,4.80
2011,06,24,18,04,4.80
2011,06,24,18,05,4.80
2011,06,24,18,06,3.20
2011,06,24,18,07,3.20
2011,06,24,18,08,4.80
2011,06,24,18,09,6.40
2011,06,24,18,10,8.10
2011,06,24,18,11,6.40
2011,06,24,18,12,4.80
2011,06,24,18,13,4.80
2011,06,24,18,14,4.80
2011,06,24,18,15,4.80
2011,06,24,18,16,1.60
2011,06,24,18,17,8.10
2011,06,24,18,18,6.40
2011,06,24,18,19,3.20
2011,06,24,18,20,4.80
2011,06,24,18,21,1.60
2011,06,24,18,22,3.20
2011,06,24,18,23,1.60
2011,06,24,18,24,3.20
2011,06,24,18,25,3.20
2011,06,24,18,26,4.80
2011,06,24,18,27,8.10
2011,06,24,18,28,4.80
2011,06,24,18,29,8.10
2011,06,24,18,30,6.40
2011,06,24,18,31,8.10
2011,06,24,18,32,8.10
2011,06,24,18,33,6.40
2011,06,24,18,34,6.40
2011,06,24,18,35,4.80
2011,06,24,18,36,6.40
2011,06,24,18,37,4.80
2011,06,24,18,38,1.60
2011,06,24,18,42,3.20
2011,06,24,18,43,1.60
2011,06,24,18,44,3.20
2011,06,24,18,49,3.20
2011,06,24,18,50,3.20
2011,06,24,18,51,3.20
2011,06,24,18,52,6.40
2011,06,24,18,53,6.40
2011,06,24,18,54,6.40
2011,06,24,18,55,3.20
2011,06,24,18,56,3.20
2011,06,24,18,58,3.20
2011,06,24,18,59,3.20
2011,06,24,19,02,1.60
2011,06,24,19,03,1.60
2011,06,24,19,04,1.60
2011,06,24,19,05,3.20
2011,06,24,19,06,3.20
2011,06,24,19,07,4.80
2011,06,24,19,08,4.80
2011,06,24,19,09,3.20
2011,06,24,19,10,3.20
2011,06,24,19,11,3.20
2011,06,24,19,12,4.80
2011,06,24,19,13,4.80
2011,06,24,19,14,3.20
2011,06,24,19,15,3.20
2011,06,24,19,16,1.60
2011,06,24,19,17,4.80
2011,06,24,19,18,4.80
2011,06,24,19,19,3.20
2011,06,24,19,20,3.20
2011,06,24,19,21,3.20